Regional Weather Roundup
Issued by NWS

Home | Current Version | Previous Version | Graphics & Text | Print | Product List | Glossary On
Versions: 1 2 3 4 5 6 7 8 9 10 11 12 13 14 15 16 17 18 19 20 21 22 23 24 25 26 27 28 29 30 31 32 33 34 35 36 37 38 39 40 41 42 43 44 45 46 47 48 49 50
000
ASUS45 KSLC 251710
RWRUT

UTAH REGIONAL WEATHER ROUNDUP
NATIONAL WEATHER SERVICE SALT LAKE CITY UT
1100 AM MDT SUN JUN 25 2017

UTZ001>011-023>025-251800-

NORTHERN UTAH

CITY           SKY/WX    TMP DP  RH WIND       PRES   REMARKS
BRIGHAM CITY   SUNNY     79  40  24 N7        30.22S
HILL AFB       SUNNY     77  45  31 NE6       30.23F
LOGAN          SUNNY     74  46  36 VRB6      30.25F
OGDEN          SUNNY     81  39  22 VRB6      30.21S
SALT LAKE CITY SUNNY     82  39  21 NW7       30.20S
TOOELE VALLEY  SUNNY     79  46  31 NW6       30.21S
WENDOVER         N/A     82  35  18 SE8       30.21S
HEBER CITY     SUNNY     72  37  28 CALM      30.30F
WEST JORDAN    SUNNY     78  50  37 CALM      30.22F

$$

UTZ011>015-024>027-251800-

CENTRAL/NORTHEAST UTAH

CITY           SKY/WX    TMP DP  RH WIND       PRES   REMARKS
PROVO AIRPORT  SUNNY     77  41  27 S5        30.24F
MOAB/CANYONLAN SUNNY     88  25  10 VRB7      30.16F
DELTA          SUNNY     81  28  15 E7        30.23S
PRICE          SUNNY     81  26  13 CALM      30.28S
RICHFIELD      SUNNY     75  34  22 N1        30.28
VERNAL         SUNNY     78  36  21 W6        30.28F

$$

UTZ013>016-019>022-027-251800-

SOUTHERN UTAH

CITY           SKY/WX    TMP DP  RH WIND       PRES   REMARKS
BRYCE CANYON   PTSUNNY   75  22  13 CALM      30.41F
CEDAR CITY     PTSUNNY   78  25  14 CALM      30.26S
MILFORD        SUNNY     84  22  10 N12       30.22F
ST GEORGE      SUNNY     91  27  10 E5        30.03F
HANKSVILLE     SUNNY     88  28  11 NE3       30.19F
KANAB          SUNNY     88  27  11 W2        30.22
BLANDING       SUNNY     81  34  18 SE10      30.35S

$$

REGIONAL REPORTS     COLORADO/ARIZONA

CITY           SKY/WX    TMP DP  RH WIND       PRES   REMARKS
CRAIG, CO      SUNNY     73  33  23 NW5       30.35F
GRAND JUNCTION SUNNY     82  29  14 S8        30.21F
RIFLE, CO      SUNNY     77  34  21 MISG      30.28F
MONTROSE, CO   SUNNY     78  37  22 N7        30.28F
CORTEZ, CO     SUNNY     82  43  25 CALM      30.28S
COLORADO CITY    N/A     91  28  10 W8        30.23R
PAGE, AZ       MOSUNNY   88  24  10 E6        30.13F
GRAND CANYON   MOSUNNY   84  31  14 VRB6      30.33S
KINGMAN, AZ    SUNNY    101  41  12 E21       30.02S HX  96
FLAGSTAFF, AZ  MOSUNNY   81  34  18 S8        30.35S

$$

REGIONAL REPORTS    NEVADA/IDAHO/WYOMING

CITY           SKY/WX    TMP DP  RH WIND       PRES   REMARKS
LAS VEGAS, NV  MOSUNNY  102  15   4 E8        29.92S HX  94
ELY, NY        MOSUNNY   76  24  14 CALM      30.31F
ELKO, NV       SUNNY     78  31  17 E3        30.22F
POCATELLO, ID  SUNNY     74  48  39 N7        30.26F
BURLEY, ID     SUNNY     75  48  38 NE8       30.21F
FORT BRIDGER,    N/A     67  34  29 E6        30.46S
EVANSTON, WY   SUNNY     68  40  35 NE8       30.42S
ROCK SPRINGS,  SUNNY     68  33  27 MISG      30.42S
KEMMERER, WY     N/A     64  32  29 CALM      30.46R

$$



USA.gov is the U.S. government's official web portal to all federal, state and local government web resources and services.